Home > Weather > Brno > Past weeks

Flag for Czech Republic Past Weather in Brno, Czech Republic — Yesterday and Last 2 Weeks

Now
82 °F

Partly sunny.


Feels Like: 83 °F
Forecast: 63 / 78 °F
Wind: 5 mph from Southeast

Location: Brno / Turany

Current Time: Jul 27, 2016 at 1:51:31 PM

Latest Report: Jul 27, 2016 at 1:00 PM


Visibility: 13 mi

Pressure: 29.96 "Hg

Humidity: 58%

Dew Point: 65 °F

Location of BrnoLocation

Past Weather in Brno — Graph

°F

Brno Temperature Yesterday

Maximum temperature yesterday: 85 °F (at 2:00 PM)
Minimum temperature yesterday: 65 °F (at 4:00 AM)
Average temperature yesterday: 74 °F

High & Low Weather Summary for the Past Weeks

 TemperatureHumidityPressure
High85 °F (Jul 26, 2:00 PM)99% (Jul 13, 3:00 AM)30.22 "Hg (Jul 13, 3:00 AM)
Low47 °F (Jul 15, 5:00 AM)42% (Jul 23, 5:00 PM)29.67 "Hg (Jul 14, 8:00 AM)
Average69 °F72%30.01 "Hg
* Reported Jul 12 12:00 PM — Jul 27 12:00 PM, Brno, Weather by CustomWeather, © 2016

Note: Actual official high and low records may vary slightly from our data, if they occured in-between our weather recording intervals... More about our weather records

Advertising

Brno Weather History for the Previous 24 Hours

Scroll right to see more
 ConditionsComfort  
Time TempWeatherWind HumidityBarometerVisibility
12:00 PM
Wed, Jul 27
81 °FScattered clouds.3 mph61%29.98 "Hg9 mi
11:00 AM79 °FScattered clouds.5 mph65%29.99 "Hg9 mi
10:00 AM77 °FPartly sunny.5 mph66%30.01 "Hg7 mi
9:00 AM74 °FScattered clouds.6 mph74%30.01 "Hg7 mi
8:11 AM71 °FScattered clouds.2 mph80%30.03 "Hg7 mi
7:00 AM68 °FPartly sunny.2 mph83%30.03 "Hg7 mi
6:00 AM65 °FPassing clouds.No wind89%30.03 "Hg7 mi
5:00 AM67 °FPassing clouds.2 mph83%30.02 "Hg9 mi
4:00 AM68 °FPassing clouds.2 mph82%30.02 "Hg12 mi
3:00 AM69 °FPassing clouds.3 mph80%30.01 "Hg16 mi
2:00 AM69 °FPassing clouds.3 mph80%30.03 "Hg16 mi
1:00 AM69 °FPassing clouds.2 mph79%30.03 "Hg16 mi
12:00 AM72 °FPassing clouds.3 mph74%30.03 "Hg16 mi
11:00 PM
Tue, Jul 26
72 °FPassing clouds.3 mph70%30.02 "Hg16 mi
10:00 PM75 °FPassing clouds.2 mph65%30.01 "Hg16 mi
9:00 PM76 °FPassing clouds.3 mph66%30.01 "Hg12 mi
8:00 PM76 °FPartly sunny.1 mph76%30.00 "Hg16 mi
7:00 PM77 °FThunderstorms. Partly sunny.2 mph70%29.98 "Hg19 mi
6:00 PM81 °FThunderstorms. Partly sunny.1 mph61%29.97 "Hg19 mi
5:00 PM75 °FThunderstorms. Partly sunny.3 mph71%29.98 "Hg25 mi
4:00 PM80 °FThunderstorms. Partly sunny.1 mph61%29.96 "Hg19 mi
3:00 PM76 °FThundershowers. Overcast.7 mph68%29.98 "Hg11 mi
2:00 PM85 °FScattered clouds.2 mph51%29.96 "Hg16 mi
1:00 PM84 °FScattered clouds.2 mph55%29.99 "Hg16 mi
Weather by CustomWeather, © 2016

See weather overviewHow to use our weather pages